NFC120 LIPZ-LCLK

Flight info

Callsign NFC120
Flight time N/A
Altitude 37000
Route ROSKA7L/04R ROSKA T132 ROTAR DCT LOS DCT EBITA DCT SPL DCT PETAK DCT DOBAR DCT BITLA DCT AGISA DCT AMISI DCT MES UL609 RDS UM601 EVENO DCT DASNI M601 BONEK BONEK1R
Aircraft B738/M-SDE2E3FGHIRWXY/LB1

Departure

Time N/A
Airport Venice Marco Polo Airport (LIPZ)

Arrival

Time 2026-05-03 22:36
Airport Larnaca International Airport (LCLK)
Time Latitude Longitude Altitude Speed Heading
2026-05-03 20:15 44.50953 14.50814 32087 ft 491 kts 122°
2026-05-03 20:15 44.49692 14.53438 32313 ft 490 kts 122°
2026-05-03 20:15 44.47804 14.57429 32644 ft 490 kts 122°
2026-05-03 20:15 44.45923 14.61414 32948 ft 490 kts 122°
2026-05-03 20:16 44.44031 14.65394 33269 ft 489 kts 122°
2026-05-03 20:16 44.42137 14.69350 33539 ft 490 kts 122°
2026-05-03 20:16 44.40229 14.73315 33716 ft 493 kts 122°
2026-05-03 20:16 44.38302 14.77281 33984 ft 493 kts 124°
2026-05-03 20:17 44.36252 14.81131 34304 ft 493 kts 126°
2026-05-03 20:17 44.34140 14.84888 34620 ft 491 kts 127°
2026-05-03 20:17 44.31999 14.88611 34900 ft 490 kts 127°
2026-05-03 20:17 44.29882 14.92273 35143 ft 490 kts 127°
2026-05-03 20:18 44.27744 14.95984 35403 ft 490 kts 127°
2026-05-03 20:18 44.25620 14.99689 35677 ft 489 kts 127°
2026-05-03 20:18 44.23502 15.03399 35951 ft 488 kts 127°
2026-05-03 20:18 44.21390 15.07108 36273 ft 486 kts 127°
2026-05-03 20:19 44.19298 15.10784 36608 ft 483 kts 127°
2026-05-03 20:19 44.17213 15.14445 36852 ft 483 kts 127°
2026-05-03 20:19 44.15116 15.18124 36987 ft 485 kts 127°
2026-05-03 20:19 44.13009 15.21816 37090 ft 487 kts 127°
2026-05-03 20:20 44.10925 15.25461 37102 ft 487 kts 127°
2026-05-03 20:20 44.06706 15.32821 37101 ft 484 kts 127°
2026-05-03 20:21 44.02515 15.40114 37110 ft 481 kts 127°
2026-05-03 20:21 43.98336 15.47367 37098 ft 479 kts 127°
2026-05-03 20:22 43.94179 15.54566 37097 ft 477 kts 127°
2026-05-03 20:22 43.90023 15.61746 37098 ft 477 kts 127°
2026-05-03 20:23 43.85855 15.68928 37099 ft 479 kts 127°
2026-05-03 20:23 43.81667 15.76126 37092 ft 481 kts 127°
2026-05-03 20:24 43.77459 15.83341 37084 ft 482 kts 127°
2026-05-03 20:24 43.73258 15.90526 37080 ft 484 kts 127°
2026-05-03 20:25 43.69006 15.97781 37072 ft 485 kts 127°
2026-05-03 20:25 43.64746 16.05030 37083 ft 486 kts 127°
2026-05-03 20:26 43.60469 16.12290 37071 ft 487 kts 127°
2026-05-03 20:26 43.56213 16.19498 37072 ft 486 kts 127°
2026-05-03 20:27 43.51941 16.26719 37067 ft 485 kts 127°
2026-05-03 20:27 43.47707 16.33952 37076 ft 484 kts 125°
2026-05-03 20:28 43.43671 16.41360 37078 ft 483 kts 123°
2026-05-03 20:28 43.39679 16.48792 37060 ft 483 kts 123°
2026-05-03 20:29 43.35659 16.56192 37083 ft 482 kts 124°
2026-05-03 20:29 43.31619 16.63560 37086 ft 483 kts 124°
2026-05-03 20:30 43.27569 16.70913 37103 ft 483 kts 124°
2026-05-03 20:30 43.23530 16.78227 37096 ft 484 kts 123°
2026-05-03 20:31 43.19454 16.85593 37096 ft 484 kts 123°
2026-05-03 20:31 43.15377 16.92943 37103 ft 484 kts 123°
2026-05-03 20:32 43.11288 17.00297 37093 ft 486 kts 123°
2026-05-03 20:32 43.07184 17.07660 37119 ft 487 kts 123°
2026-05-03 20:33 43.03091 17.14984 37108 ft 488 kts 123°
2026-05-03 20:33 42.98963 17.22353 37108 ft 489 kts 123°
2026-05-03 20:34 42.94824 17.29722 37107 ft 488 kts 123°
2026-05-03 20:34 42.90680 17.37081 37106 ft 488 kts 123°
2026-05-03 20:35 42.86531 17.44432 37101 ft 489 kts 123°
2026-05-03 20:35 42.82382 17.51765 37097 ft 489 kts 124°
2026-05-03 20:36 42.78255 17.59041 37097 ft 488 kts 124°
2026-05-03 20:36 42.74101 17.66347 37107 ft 488 kts 124°
2026-05-03 20:37 42.69949 17.73630 37109 ft 487 kts 124°
2026-05-03 20:37 42.65779 17.80929 37103 ft 487 kts 124°
2026-05-03 20:38 42.61622 17.88187 37099 ft 486 kts 124°
2026-05-03 20:38 42.57464 17.95427 37097 ft 485 kts 124°
2026-05-03 20:39 42.53339 18.02594 37102 ft 485 kts 124°
2026-05-03 20:39 42.49186 18.09792 37104 ft 484 kts 124°
2026-05-03 20:40 42.45029 18.16981 37104 ft 485 kts 124°
2026-05-03 20:40 42.40861 18.24169 37105 ft 485 kts 124°
2026-05-03 20:41 42.36685 18.31356 37107 ft 486 kts 124°
2026-05-03 20:41 42.32502 18.38536 37104 ft 486 kts 124°
2026-05-03 20:42 42.28328 18.45685 37138 ft 488 kts 124°
2026-05-03 20:42 42.24114 18.52885 37125 ft 488 kts 124°
2026-05-03 20:43 42.19897 18.60072 37123 ft 489 kts 124°
2026-05-03 20:43 42.15665 18.67267 37113 ft 489 kts 124°
2026-05-03 20:44 42.11454 18.74409 37119 ft 489 kts 124°
2026-05-03 20:44 42.07218 18.81577 37129 ft 489 kts 124°
2026-05-03 20:45 42.02979 18.88733 37127 ft 489 kts 124°
2026-05-03 20:45 41.98733 18.95885 37129 ft 489 kts 124°
2026-05-03 20:46 41.94480 19.03030 37128 ft 489 kts 124°
2026-05-03 20:46 41.90228 19.10158 37132 ft 489 kts 124°
2026-05-03 20:47 41.85999 19.17231 37121 ft 489 kts 124°
2026-05-03 20:47 41.81738 19.24344 37123 ft 489 kts 124°
2026-05-03 20:48 41.77534 19.31513 37123 ft 485 kts 118°
2026-05-03 20:48 41.74427 19.39363 37130 ft 478 kts 110°
2026-05-03 20:49 41.71559 19.47390 37151 ft 478 kts 110°
2026-05-03 20:49 41.68648 19.55417 37129 ft 479 kts 110°
2026-05-03 20:50 41.65692 19.63426 37126 ft 480 kts 110°
2026-05-03 20:50 41.62717 19.71431 37130 ft 480 kts 110°
2026-05-03 20:51 41.59758 19.79374 37130 ft 481 kts 110°
2026-05-03 20:51 41.56767 19.87385 37151 ft 483 kts 111°
2026-05-03 20:52 41.53756 19.95429 37150 ft 484 kts 111°
2026-05-03 20:52 41.50733 20.03483 37149 ft 485 kts 111°
2026-05-03 20:53 41.47706 20.11522 37146 ft 484 kts 111°
2026-05-03 20:53 41.44681 20.19534 37153 ft 483 kts 111°
2026-05-03 20:54 41.41678 20.27465 37162 ft 481 kts 111°
2026-05-03 20:54 41.37163 20.39359 37167 ft 479 kts 111°
2026-05-03 20:55 41.34149 20.47275 37211 ft 479 kts 111°
2026-05-03 20:55 41.30680 20.54926 37183 ft 486 kts 120°
2026-05-03 20:56 41.26740 20.62260 37165 ft 488 kts 121°
2026-05-03 20:56 41.22786 20.69592 37175 ft 488 kts 120°
2026-05-03 20:57 41.18877 20.76965 37173 ft 488 kts 120°
2026-05-03 20:57 41.15012 20.84297 37176 ft 488 kts 120°
2026-05-03 20:58 41.11110 20.91689 37170 ft 489 kts 120°
2026-05-03 20:58 41.07199 20.99072 37180 ft 488 kts 120°
2026-05-03 20:59 41.03306 21.06400 37178 ft 488 kts 120°
2026-05-03 20:59 40.99385 21.13764 37179 ft 489 kts 120°
2026-05-03 21:00 40.96781 21.18646 37184 ft 491 kts 120°
2026-05-03 21:00 40.91526 21.28475 37199 ft 491 kts 120°
2026-05-03 21:01 40.87567 21.35858 37195 ft 492 kts 120°
2026-05-03 21:01 40.83534 21.43182 37182 ft 493 kts 121°
2026-05-03 21:02 40.80129 21.49241 37185 ft 494 kts 121°
2026-05-03 21:02 40.76035 21.56517 37181 ft 494 kts 121°
2026-05-03 21:03 40.71943 21.63803 37174 ft 494 kts 121°
2026-05-03 21:03 40.67855 21.71077 37182 ft 493 kts 121°
2026-05-03 21:04 40.63767 21.78337 37178 ft 493 kts 121°
2026-05-03 21:04 40.59679 21.85580 37179 ft 492 kts 122°
2026-05-03 21:05 40.55619 21.92754 37166 ft 491 kts 122°
2026-05-03 21:05 40.51547 21.99933 37164 ft 489 kts 122°
2026-05-03 21:06 40.47472 22.07101 37159 ft 488 kts 122°
2026-05-03 21:06 40.43407 22.14235 37211 ft 487 kts 122°
2026-05-03 21:07 40.39343 22.21353 37168 ft 487 kts 122°
2026-05-03 21:07 40.35281 22.28451 37160 ft 487 kts 122°
2026-05-03 21:08 40.31236 22.35503 37147 ft 487 kts 122°
2026-05-03 21:08 40.27160 22.42592 37157 ft 487 kts 122°
2026-05-03 21:09 40.23075 22.49681 37155 ft 488 kts 123°
2026-05-03 21:09 40.18977 22.56775 37148 ft 489 kts 123°
2026-05-03 21:10 40.14868 22.63873 37142 ft 489 kts 123°
2026-05-03 21:10 40.10755 22.70960 37138 ft 489 kts 123°
2026-05-03 21:11 40.06658 22.78005 37141 ft 490 kts 123°
2026-05-03 21:11 40.02526 22.85096 37155 ft 490 kts 123°
2026-05-03 21:12 39.98392 22.92172 37147 ft 490 kts 123°
2026-05-03 21:12 39.94255 22.99239 37152 ft 489 kts 123°
2026-05-03 21:13 39.90142 23.06248 37153 ft 489 kts 123°
2026-05-03 21:13 39.86007 23.13281 37175 ft 488 kts 124°
2026-05-03 21:14 39.81872 23.20297 37154 ft 487 kts 124°
2026-05-03 21:14 39.77766 23.27251 37152 ft 487 kts 124°
2026-05-03 21:15 39.73641 23.34222 37157 ft 486 kts 124°
2026-05-03 21:15 39.69521 23.41189 37161 ft 486 kts 124°
2026-05-03 21:16 39.65406 23.48157 37163 ft 486 kts 125°
2026-05-03 21:16 39.61289 23.55115 37159 ft 486 kts 125°
2026-05-03 21:17 39.57864 23.60891 37161 ft 486 kts 125°
2026-05-03 21:17 39.53066 23.68962 37157 ft 486 kts 125°
2026-05-03 21:18 39.48935 23.75894 37181 ft 486 kts 125°
2026-05-03 21:18 39.44797 23.82823 37157 ft 487 kts 125°
2026-05-03 21:19 39.40648 23.89754 37158 ft 487 kts 125°
2026-05-03 21:19 39.36495 23.96678 37157 ft 487 kts 125°
2026-05-03 21:20 39.32344 24.03584 37155 ft 487 kts 125°
2026-05-03 21:20 39.28208 24.10450 37163 ft 487 kts 126°
2026-05-03 21:21 39.24032 24.17367 37148 ft 488 kts 126°
2026-05-03 21:21 39.19855 24.24270 37146 ft 487 kts 126°
2026-05-03 21:22 39.15679 24.31158 37134 ft 487 kts 126°
2026-05-03 21:22 39.11521 24.38000 37142 ft 487 kts 126°
2026-05-03 21:23 39.07337 24.44871 37131 ft 487 kts 126°
2026-05-03 21:23 39.03150 24.51732 37143 ft 487 kts 126°
2026-05-03 21:24 38.98956 24.58590 37130 ft 488 kts 126°
2026-05-03 21:24 38.94786 24.65396 37113 ft 488 kts 126°
2026-05-03 21:25 38.90527 24.72332 37119 ft 488 kts 126°
2026-05-03 21:25 38.86321 24.79168 37110 ft 488 kts 126°
2026-05-03 21:26 38.82268 24.86078 37129 ft 487 kts 123°
2026-05-03 21:26 38.78443 24.93232 37107 ft 487 kts 122°
2026-05-03 21:27 38.74629 25.00420 37103 ft 488 kts 122°
2026-05-03 21:27 38.70772 25.07592 37114 ft 488 kts 123°
2026-05-03 21:28 38.66911 25.14709 37102 ft 490 kts 122°
2026-05-03 21:28 38.62994 25.21905 37112 ft 491 kts 123°
2026-05-03 21:29 38.59107 25.29034 37091 ft 492 kts 122°
2026-05-03 21:29 38.55178 25.36226 37091 ft 493 kts 123°
2026-05-03 21:30 38.51248 25.43405 37083 ft 493 kts 123°
2026-05-03 21:30 38.47310 25.50583 37084 ft 494 kts 123°
2026-05-03 21:31 38.43349 25.57786 37051 ft 494 kts 123°
2026-05-03 21:31 38.39407 25.64941 37067 ft 494 kts 124°
2026-05-03 21:32 38.35454 25.72099 37063 ft 494 kts 124°
2026-05-03 21:32 38.31512 25.79222 37041 ft 495 kts 124°
2026-05-03 21:33 38.27527 25.86411 37038 ft 495 kts 124°
2026-05-03 21:33 38.23125 25.93142 37020 ft 496 kts 138°
2026-05-03 21:34 38.17885 25.98820 37046 ft 496 kts 140°
2026-05-03 21:34 38.12667 26.04452 37019 ft 488 kts 139°
2026-05-03 21:35 38.07570 26.10072 37017 ft 485 kts 139°
2026-05-03 21:35 38.02421 26.15746 37020 ft 493 kts 139°
2026-05-03 21:36 37.97227 26.21452 37031 ft 499 kts 139°
2026-05-03 21:36 37.91976 26.27211 37027 ft 498 kts 139°
2026-05-03 21:37 37.87550 26.32060 36998 ft 485 kts 140°
2026-05-03 21:37 37.82416 26.37679 37021 ft 489 kts 140°
2026-05-03 21:38 37.77228 26.43361 37007 ft 497 kts 140°
2026-05-03 21:38 37.72008 26.49070 36996 ft 500 kts 139°
2026-05-03 21:39 37.66749 26.54803 36987 ft 498 kts 140°
2026-05-03 21:39 37.61520 26.60470 36981 ft 495 kts 140°
2026-05-03 21:40 37.56266 26.66151 36954 ft 494 kts 140°
2026-05-03 21:40 37.51078 26.71755 36954 ft 495 kts 140°
2026-05-03 21:41 37.45849 26.77395 36954 ft 495 kts 140°
2026-05-03 21:41 37.40602 26.83043 36964 ft 495 kts 140°
2026-05-03 21:42 37.35494 26.88886 36962 ft 497 kts 137°
2026-05-03 21:42 37.30532 26.94897 36953 ft 497 kts 137°
2026-05-03 21:43 37.25572 27.00897 36933 ft 495 kts 137°
2026-05-03 21:43 37.20581 27.06866 36917 ft 494 kts 138°
2026-05-03 21:44 37.15619 27.12761 36928 ft 494 kts 137°
2026-05-03 21:44 37.10618 27.18689 36921 ft 495 kts 138°
2026-05-03 21:45 37.05604 27.24624 36914 ft 494 kts 138°
2026-05-03 21:45 37.00599 27.30538 36902 ft 495 kts 138°
2026-05-03 21:46 36.95633 27.36395 36892 ft 494 kts 138°
2026-05-03 21:46 36.90620 27.42298 36883 ft 493 kts 139°
2026-05-03 21:47 36.85617 27.48176 36877 ft 493 kts 139°
2026-05-03 21:47 36.80655 27.53996 36879 ft 492 kts 139°
2026-05-03 21:48 36.75653 27.59852 36871 ft 491 kts 139°
2026-05-03 21:48 36.71501 27.64705 36859 ft 491 kts 139°
2026-05-03 21:49 36.65703 27.71468 36846 ft 490 kts 139°
2026-05-03 21:49 36.61570 27.76280 36834 ft 490 kts 139°
2026-05-03 21:50 36.56589 27.82071 36841 ft 490 kts 139°
2026-05-03 21:50 36.51587 27.87874 36813 ft 491 kts 139°
2026-05-03 21:51 36.46576 27.93678 36807 ft 492 kts 139°
2026-05-03 21:51 36.41586 27.99448 36810 ft 494 kts 139°
2026-05-03 21:52 36.36628 28.05354 36792 ft 496 kts 133°
2026-05-03 21:52 36.32895 28.12565 36820 ft 500 kts 115°
2026-05-03 21:53 36.30669 28.20738 36819 ft 500 kts 107°
2026-05-03 21:53 36.28667 28.29006 36811 ft 499 kts 108°
2026-05-03 21:54 36.26593 28.37215 36805 ft 499 kts 108°
2026-05-03 21:54 36.24484 28.45395 36802 ft 498 kts 109°
2026-05-03 21:55 36.22371 28.53573 36811 ft 498 kts 109°
2026-05-03 21:55 36.20256 28.61704 36801 ft 499 kts 109°
2026-05-03 21:56 36.18127 28.69866 36797 ft 499 kts 109°
2026-05-03 21:56 36.15985 28.78059 36796 ft 500 kts 109°
2026-05-03 21:57 36.13835 28.86260 36795 ft 501 kts 109°
2026-05-03 21:57 36.11678 28.94458 36799 ft 502 kts 109°
2026-05-03 21:58 36.09520 29.02637 36789 ft 503 kts 109°
2026-05-03 21:58 36.07350 29.10837 36797 ft 503 kts 109°
2026-05-03 21:59 36.05163 29.19071 36791 ft 504 kts 109°
2026-05-03 21:59 36.02963 29.27331 36779 ft 505 kts 110°
2026-05-03 22:00 36.00764 29.35563 36782 ft 505 kts 110°
2026-05-03 22:00 35.98564 29.43775 36777 ft 506 kts 110°
2026-05-03 22:01 35.96547 29.51283 36781 ft 506 kts 110°
2026-05-03 22:01 35.94472 29.58975 36768 ft 506 kts 110°
2026-05-03 22:02 35.92241 29.67210 36783 ft 506 kts 110°
2026-05-03 22:02 35.90006 29.75440 36782 ft 506 kts 110°
2026-05-03 22:03 35.87766 29.83666 36762 ft 506 kts 110°
2026-05-03 22:03 35.85519 29.91896 36777 ft 507 kts 110°
2026-05-03 22:04 35.83265 30.00127 36776 ft 507 kts 110°
2026-05-03 22:04 35.81128 30.08411 36768 ft 507 kts 109°
2026-05-03 22:05 35.79073 30.16740 36766 ft 507 kts 109°
2026-05-03 22:05 35.77008 30.25038 36773 ft 507 kts 109°
2026-05-03 22:06 35.74914 30.33336 36773 ft 507 kts 109°
2026-05-03 22:06 35.72820 30.41585 36762 ft 507 kts 109°
2026-05-03 22:07 35.70715 30.49852 36774 ft 506 kts 110°
2026-05-03 22:07 35.68604 30.58126 36777 ft 506 kts 110°
2026-05-03 22:08 35.66491 30.66379 36781 ft 506 kts 110°
2026-05-03 22:08 35.64367 30.74650 36783 ft 506 kts 110°
2026-05-03 22:09 35.62236 30.82923 36780 ft 506 kts 110°
2026-05-03 22:10 35.59094 30.95240 36784 ft 506 kts 109°
2026-05-03 22:10 35.57005 31.03508 36780 ft 506 kts 110°
2026-05-03 22:11 35.54915 31.11736 36785 ft 506 kts 110°
2026-05-03 22:11 35.52804 31.20010 36788 ft 506 kts 110°
2026-05-03 22:12 35.50697 31.28233 36770 ft 505 kts 111°
2026-05-03 22:12 35.48589 31.36433 36795 ft 505 kts 111°
2026-05-03 22:13 35.46470 31.44652 36799 ft 505 kts 111°
2026-05-03 22:13 35.44363 31.52802 36784 ft 505 kts 111°
2026-05-03 22:14 35.42215 31.61078 36229 ft 511 kts 112°
2026-05-03 22:14 35.41132 31.65239 35649 ft 509 kts 112°
2026-05-03 22:14 35.40060 31.69359 34966 ft 510 kts 112°
2026-05-03 22:14 35.38976 31.73515 34241 ft 513 kts 112°
2026-05-03 22:15 35.37887 31.77681 33452 ft 516 kts 112°
2026-05-03 22:15 35.36781 31.81906 32600 ft 519 kts 112°
2026-05-03 22:15 35.35678 31.86117 31838 ft 520 kts 113°
2026-05-03 22:15 35.34566 31.90358 31036 ft 521 kts 113°
2026-05-03 22:16 35.33470 31.94525 30204 ft 524 kts 114°
2026-05-03 22:16 35.32331 31.98853 29193 ft 526 kts 114°
2026-05-03 22:16 35.31213 32.03095 28205 ft 526 kts 113°
2026-05-03 22:16 35.30091 32.07352 27220 ft 525 kts 113°
2026-05-03 22:17 35.28995 32.11533 26375 ft 522 kts 113°
2026-05-03 22:17 35.27895 32.15759 25691 ft 515 kts 112°
2026-05-03 22:17 35.26815 32.19911 25016 ft 508 kts 112°
2026-05-03 22:17 35.25753 32.23984 24352 ft 501 kts 112°
2026-05-03 22:18 35.24694 32.28032 23698 ft 494 kts 112°
2026-05-03 22:18 35.23654 32.31994 22931 ft 488 kts 112°
2026-05-03 22:18 35.22617 32.35942 22187 ft 480 kts 113°
2026-05-03 22:18 35.21601 32.39801 21530 ft 473 kts 113°
2026-05-03 22:19 35.20612 32.43549 20890 ft 467 kts 113°
2026-05-03 22:19 35.19613 32.47328 20241 ft 461 kts 112°
2026-05-03 22:19 35.18637 32.51017 19605 ft 455 kts 112°
2026-05-03 22:19 35.17661 32.54698 18971 ft 450 kts 112°
2026-05-03 22:20 35.16705 32.58296 18362 ft 444 kts 111°
2026-05-03 22:20 35.15756 32.61868 17683 ft 439 kts 111°
2026-05-03 22:20 35.14816 32.65404 17042 ft 433 kts 111°
2026-05-03 22:20 35.13894 32.68868 16433 ft 428 kts 111°
2026-05-03 22:21 35.12973 32.72322 15814 ft 423 kts 111°
2026-05-03 22:21 35.12072 32.75698 15199 ft 419 kts 111°
2026-05-03 22:21 35.11171 32.79064 14606 ft 415 kts 111°
2026-05-03 22:21 35.10279 32.82397 14011 ft 412 kts 111°
2026-05-03 22:22 35.09384 32.85739 13385 ft 408 kts 111°
2026-05-03 22:22 35.08504 32.89018 12744 ft 405 kts 111°
2026-05-03 22:22 35.07640 32.92238 12178 ft 400 kts 112°
2026-05-03 22:22 35.06764 32.95447 11620 ft 396 kts 113°
2026-05-03 22:23 35.05859 32.98614 11046 ft 393 kts 114°
2026-05-03 22:23 35.04958 33.01722 10798 ft 381 kts 114°
2026-05-03 22:23 35.04090 33.04717 10633 ft 368 kts 114°
2026-05-03 22:23 35.03254 33.07612 10481 ft 355 kts 114°
2026-05-03 22:24 35.02446 33.10412 10406 ft 342 kts 114°
2026-05-03 22:24 35.01672 33.13101 10311 ft 330 kts 114°
2026-05-03 22:24 35.00923 33.15699 10194 ft 320 kts 115°
2026-05-03 22:24 35.00202 33.18194 10044 ft 311 kts 115°
2026-05-03 22:25 34.99493 33.20647 9915 ft 303 kts 115°
2026-05-03 22:25 34.98792 33.23068 9637 ft 301 kts 115°
2026-05-03 22:25 34.98097 33.25467 9350 ft 299 kts 115°
2026-05-03 22:25 34.97407 33.27845 9072 ft 297 kts 115°
2026-05-03 22:26 34.96722 33.30210 8792 ft 295 kts 115°
2026-05-03 22:26 34.96040 33.32559 8514 ft 292 kts 116°
2026-05-03 22:26 34.95362 33.34891 8236 ft 291 kts 116°
2026-05-03 22:26 34.94689 33.37205 7960 ft 289 kts 116°
2026-05-03 22:27 34.94018 33.39508 7703 ft 287 kts 116°
2026-05-03 22:27 34.93351 33.41799 7433 ft 286 kts 116°
2026-05-03 22:27 34.92692 33.44057 7166 ft 286 kts 116°
2026-05-03 22:27 34.92023 33.46348 6879 ft 287 kts 116°
2026-05-03 22:28 34.91352 33.48649 6585 ft 288 kts 116°
2026-05-03 22:28 34.90681 33.50950 6293 ft 288 kts 116°
2026-05-03 22:28 34.90013 33.53238 6006 ft 286 kts 116°
2026-05-03 22:28 34.89348 33.55518 5701 ft 285 kts 117°
2026-05-03 22:29 34.88686 33.57780 5414 ft 283 kts 117°
2026-05-03 22:29 34.88028 33.60028 5164 ft 280 kts 116°
2026-05-03 22:29 34.87650 33.62372 4920 ft 288 kts 91°
2026-05-03 22:29 34.88048 33.64754 4725 ft 288 kts 71°
2026-05-03 22:30 34.88843 33.66991 4482 ft 287 kts 65°
2026-05-03 22:30 34.89695 33.69131 4302 ft 281 kts 65°
2026-05-03 22:30 34.90538 33.71275 4177 ft 273 kts 66°
2026-05-03 22:30 34.91323 33.73320 4065 ft 266 kts 66°
2026-05-03 22:31 34.92088 33.75342 3951 ft 259 kts 66°
2026-05-03 22:31 34.92832 33.77320 3837 ft 258 kts 65°
2026-05-03 22:31 34.93919 33.79041 3469 ft 256 kts 26°
2026-05-03 22:31 34.95530 33.79558 3207 ft 231 kts 342°
2026-05-03 22:32 34.96849 33.78780 2953 ft 199 kts 300°
2026-05-03 22:32 34.97274 33.77321 2646 ft 178 kts 258°
2026-05-03 22:32 34.96948 33.75901 2446 ft 173 kts 248°
2026-05-03 22:32 34.96475 33.74558 2265 ft 174 kts 245°
2026-05-03 22:33 34.95888 33.73263 2062 ft 173 kts 234°
2026-05-03 22:33 34.95160 33.72113 1864 ft 171 kts 232°
2026-05-03 22:33 34.94409 33.71045 1639 ft 160 kts 227°
2026-05-03 22:33 34.93670 33.70114 1438 ft 146 kts 228°
2026-05-03 22:34 34.92985 33.69274 1261 ft 132 kts 228°
2026-05-03 22:34 34.92380 33.68530 1109 ft 126 kts 227°
2026-05-03 22:34 34.91737 33.67741 965 ft 133 kts 225°
2026-05-03 22:34 34.91092 33.66951 800 ft 129 kts 226°
2026-05-03 22:35 34.90467 33.66184 637 ft 126 kts 226°
2026-05-03 22:35 34.89860 33.65444 512 ft 120 kts 225°
2026-05-03 22:35 34.89285 33.64757 319 ft 113 kts 227°
2026-05-03 22:35 34.88744 33.64078 170 ft 109 kts 226°
2026-05-03 22:36 34.88226 33.63442 18 ft 106 kts 227°
2026-05-03 22:36 34.87759 33.62864 15 ft 82 kts 225°
2026-05-03 22:36 34.87424 33.62454 11 ft 57 kts 225°
2026-05-03 22:36 34.87365 33.62324 13 ft 15 kts 284°
2026-05-03 22:37 34.87411 33.62248 13 ft 18 kts 314°
2026-05-03 22:37 34.87552 33.62248 14 ft 19 kts 45°
2026-05-03 22:37 34.87642 33.62359 13 ft 18 kts 45°
2026-05-03 22:37 34.87730 33.62466 13 ft 18 kts 44°
2026-05-03 22:38 34.87815 33.62568 12 ft 17 kts 44°
2026-05-03 22:38 34.87871 33.62634 12 ft 17 kts 44°
2026-05-03 22:38 34.87949 33.62733 12 ft 16 kts 45°
2026-05-03 22:38 34.88026 33.62827 11 ft 16 kts 44°
2026-05-03 22:39 34.88120 33.62934 12 ft 19 kts 26°
2026-05-03 22:39 34.88228 33.62855 10 ft 15 kts 323°
2026-05-03 22:39 34.88277 33.62868 10 ft 10 kts 46°
2026-05-03 22:39 34.88279 33.62870 12 ft 0 kts 47°